Theta_e
326 327 328 328 327 330 334 334 337 340 343 345 344 343 344 344 348 346 344 335 333 335 336 335 333 330 329 328 328 328 327 324 327 327 324 323 325 326 325 326 328 327 326 326
327 328 328 328 328 332 334 336 342 341 341 341 345 344 341 340 341 339 344 339 335 335 334 335 335 332 329 328 328 327 327 327 325 319 322 327 328 328 330 328 329 327 327 327
328 327 328 327 327 330 332 333 336 339 341 341 342 345 341 340 341 342 342 340 338 336 335 337 335 333 331 329 328 327 327 327 326 322 326 329 326 325 325 327 328 327 328 328
328 327 327 326 327 328 329 333 338 339 337 342 339 344 344 343 346 342 340 340 338 335 339 339 335 334 332 330 329 328 328 326 324 327 331 329 330 328 330 327 328 328 328 327
327 326 326 327 326 327 328 335 337 339 339 338 344 344 346 343 346 343 342 340 339 335 340 338 335 336 334 332 332 332 333 332 327 329 332 334 331 331 332 329 328 327 326 326
327 327 328 327 327 326 328 334 332 334 335 341 341 345 346 345 345 345 339 336 338 337 340 336 336 337 335 334 334 334 334 333 332 329 332 333 334 331 330 330 327 328 327 327
326 327 327 328 328 327 329 331 334 335 338 343 339 340 340 340 343 342 340 338 337 336 341 338 336 336 335 335 335 335 336 336 337 335 333 333 333 331 331 330 329 328 326 327
327 328 328 330 332 329 333 331 332 339 340 339 340 346 342 340 342 343 340 338 337 333 337 339 337 336 337 336 336 337 337 337 338 338 334 335 336 332 331 331 332 329 329 327
328 329 328 334 333 332 334 334 331 335 335 340 342 343 341 339 341 342 343 341 338 334 334 338 339 339 338 338 338 338 337 338 339 339 336 336 337 336 333 333 332 332 330 330
328 328 329 335 331 331 333 333 331 332 339 346 345 345 339 343 343 344 342 342 339 332 334 336 339 340 340 340 340 338 338 338 340 340 334 338 338 337 335 333 332 332 331 331
326 325 327 334 334 333 331 332 335 332 336 343 348 343 336 340 342 336 335 337 334 330 335 336 338 340 341 341 340 339 338 339 341 340 332 333 335 337 336 335 333 333 333 333
332 328 330 333 333 332 334 337 334 332 339 338 340 341 339 341 341 338 335 336 334 328 336 335 336 339 341 341 340 340 339 341 341 340 336 330 330 329 331 336 334 334 333 331
333 331 342 339 332 330 335 334 334 333 330 336 338 341 338 339 339 336 333 334 332 328 330 331 333 335 338 341 341 341 340 340 340 340 337 334 333 332 329 334 334 332 330 329
335 336 339 338 335 332 337 335 332 330 333 336 339 341 341 339 338 337 335 333 330 331 330 329 329 329 337 337 339 341 340 339 339 338 337 336 335 333 331 332 331 328 329 331
338 340 337 336 336 337 335 334 333 335 336 343 342 341 338 336 335 336 336 332 333 336 335 334 332 330 335 335 337 341 341 339 338 337 337 337 335 333 332 333 329 329 330 330
333 334 336 333 338 337 335 337 336 336 337 341 340 344 337 336 338 338 337 338 336 335 335 334 333 333 333 333 336 338 332 335 333 335 336 336 335 334 334 333 330 331 330 325
335 337 335 336 339 337 335 342 338 339 345 343 346 343 338 337 336 335 334 334 336 336 336 335 333 336 335 337 338 336 332 328 334 332 328 330 335 333 330 331 331 329 326 324
337 337 336 334 338 339 334 338 338 344 348 344 342 340 338 336 335 335 335 336 335 334 334 334 337 337 336 336 336 333 331 330 331 330 330 328 325 328 331 330 327 325 325 324
332 335 339 336 338 339 339 340 341 350 350 345 341 338 337 335 333 333 335 334 334 335 335 338 339 338 335 334 331 327 329 331 330 330 329 325 327 322 327 325 324 324 324 323
332 333 336 331 334 344 345 339 338 340 343 344 338 337 338 335 335 333 333 331 334 332 338 338 335 333 334 330 327 329 328 328 325 324 324 326 324 321 321 322 322 322 322 321
333 337 338 333 334 344 342 342 337 345 342 340 337 336 336 334 333 332 330 331 335 336 337 338 336 335 334 332 328 328 327 325 325 324 326 321 320 317 317 320 320 320 320 320
331 336 339 340 344 349 341 336 346 342 339 337 336 335 336 335 333 331 331 333 334 338 338 337 336 335 334 331 333 331 330 329 325 324 322 320 319 319 318 319 319 319 319 320
340 333 338 340 338 334 337 333 341 336 335 334 336 335 333 334 333 333 335 335 336 338 338 337 336 334 333 334 333 331 330 325 322 320 317 317 319 318 317 318 318 318 319 320
335 333 340 339 336 336 335 330 336 335 334 335 334 332 333 334 334 336 336 334 334 337 335 334 332 331 331 332 331 328 326 323 320 318 314 316 319 318 317 317 318 318 318 318
336 337 337 337 335 334 341 339 338 337 336 335 334 334 333 334 335 336 336 333 333 336 337 336 336 333 330 329 328 326 324 320 319 317 318 319 318 318 318 318 318 318 317 317
336 338 338 340 336 334 340 336 337 336 337 334 334 336 336 334 334 333 333 334 334 335 335 334 333 332 331 329 327 325 322 321 320 320 318 316 316 318 316 317 317 317 316 316
Wind_Speed
4 6 6 14 7 7 5 0 7 2 10 7 9 4 4 4 5 4 14 5 8 13 20 16 16 24 31 30 29 25 22 17 16 14 12 8 6 6 11 11 8 12 6 4
7 3 7 12 14 6 6 9 4 3 2 6 4 6 4 4 2 3 11 6 10 10 14 11 21 24 27 26 25 23 20 18 14 14 14 8 5 2 5 6 12 13 7 5
2 8 9 8 10 5 1 7 6 6 4 5 7 2 3 2 6 5 5 7 9 11 13 7 11 17 18 21 23 21 19 17 14 13 11 7 7 6 6 7 11 12 8 7
4 6 7 13 6 1 1 4 9 11 4 3 1 2 7 5 8 4 6 7 7 5 3 5 11 13 17 21 20 18 16 15 14 14 10 6 4 3 4 6 9 9 11 12
6 7 11 11 6 2 8 4 10 5 5 6 4 6 7 7 5 5 13 10 9 3 3 8 14 21 23 26 22 17 14 14 15 15 11 7 7 4 6 8 9 7 9 11
5 4 4 5 10 6 5 8 8 5 3 4 2 7 5 5 1 6 12 13 10 7 6 7 16 21 24 26 22 18 16 15 14 16 13 11 8 7 10 9 7 6 6 11
7 6 6 1 8 7 6 6 4 5 5 2 3 5 5 4 5 12 14 13 10 7 7 9 10 15 22 27 23 19 17 17 15 15 14 13 11 10 9 7 5 3 2 2
2 9 5 6 4 4 4 7 5 3 2 2 6 2 2 7 9 14 18 12 6 7 8 9 13 19 23 28 26 22 21 20 18 15 18 17 14 12 10 8 9 6 4 5
4 6 2 5 1 2 3 5 2 6 4 4 3 1 5 7 9 12 11 8 9 8 11 8 14 20 26 28 28 26 24 23 19 18 18 16 16 16 14 9 10 11 7 6
5 2 3 4 4 4 5 2 4 4 3 2 4 4 3 8 12 10 13 12 14 6 9 8 15 21 27 31 28 29 25 26 24 23 15 15 21 18 16 14 14 11 8 9
5 4 6 2 1 3 4 2 6 4 4 5 4 5 7 8 10 7 10 9 7 7 9 9 14 24 29 29 31 30 30 30 27 25 14 16 19 18 15 15 15 12 12 15
1 5 1 5 4 5 3 3 5 5 2 2 4 5 6 9 7 6 9 8 9 9 12 10 16 22 25 29 30 30 28 31 32 28 23 16 17 11 16 14 14 13 12 10
3 2 3 10 6 6 3 2 2 4 3 3 5 5 2 4 9 8 9 14 9 7 8 6 6 11 19 27 28 29 27 28 29 31 23 16 19 16 14 15 12 13 12 12
7 3 6 5 7 4 3 9 5 6 4 2 2 2 5 4 7 10 10 10 8 4 5 6 7 13 19 22 20 28 31 28 29 27 23 21 19 15 14 14 16 13 15 12
4 3 3 4 6 3 2 9 13 13 2 6 3 2 5 5 6 6 5 8 6 3 5 7 7 6 20 22 18 27 26 22 29 26 22 22 20 20 22 23 21 16 11 10
5 1 3 6 4 3 2 6 5 4 5 8 8 1 3 2 1 8 7 6 6 5 5 7 8 11 15 10 19 32 34 14 20 13 15 20 25 25 23 23 17 13 13 10
3 2 3 3 3 1 3 2 4 4 7 6 4 3 0 4 7 5 6 6 5 5 6 8 6 7 19 21 14 11 5 7 6 8 9 14 21 16 19 17 14 14 12 11
4 1 2 2 3 1 4 7 8 10 5 7 5 2 1 2 3 3 4 2 6 6 7 3 5 6 12 17 19 17 15 10 11 14 14 16 10 6 9 13 11 9 9 8
7 4 2 2 1 5 3 2 3 3 3 3 6 1 5 4 4 5 5 4 4 2 1 8 8 5 9 12 14 18 12 10 11 12 12 15 7 5 6 5 7 9 8 7
4 2 4 3 2 5 6 5 4 4 5 2 6 3 2 3 4 4 7 5 5 10 5 7 2 1 12 14 11 15 17 15 15 6 1 5 5 3 3 3 4 4 5 7
1 1 5 3 3 5 5 8 3 5 7 6 6 4 2 1 5 5 6 8 10 9 6 5 4 3 7 5 6 8 12 11 7 5 6 6 6 3 8 8 6 5 7 7
6 5 4 3 3 4 6 6 7 6 5 6 5 5 3 2 3 5 7 7 9 11 12 9 9 6 6 5 5 11 10 6 2 1 5 7 6 6 4 7 6 7 8 10
1 6 4 4 5 3 2 2 1 5 6 5 6 4 6 5 3 5 5 6 7 11 11 10 12 10 8 9 7 13 8 5 3 5 4 5 5 5 4 7 9 10 11 13
2 1 3 3 6 6 4 1 4 5 5 5 6 6 6 7 5 5 4 2 3 3 4 9 12 12 11 11 9 4 5 3 5 6 6 6 5 6 9 11 12 15 17 17
3 3 3 1 6 4 5 3 6 2 7 7 6 4 7 8 4 4 2 2 5 9 6 4 7 8 9 7 5 5 3 4 6 6 7 7 8 10 11 13 14 17 19 22
4 6 4 6 9 6 7 7 7 8 8 8 7 6 5 7 6 4 3 4 9 9 4 4 5 5 5 6 5 5 4 4 6 7 9 12 12 12 14 15 18 16 18 19
Wind_Direction
351 6 324 306 246 190 209 74 132 96 127 73 135 115 302 101 241 293 278 203 303 306 305 221 182 178 182 176 172 170 168 167 178 178 179 196 210 224 230 238 239 206 210 201
8 303 277 340 356 173 107 119 119 92 66 77 210 161 252 97 36 295 278 325 299 286 310 125 152 173 178 170 164 163 172 174 185 195 186 187 214 242 228 240 228 201 226 239
174 269 319 5 353 37 45 145 188 144 133 71 156 72 64 18 183 236 236 255 277 265 263 122 140 161 162 159 160 170 181 185 194 192 191 220 234 241 236 209 182 204 229 252
274 295 342 337 332 297 335 194 111 131 123 113 146 343 2 310 328 25 298 304 295 317 240 125 109 128 145 164 172 185 186 196 199 190 204 213 224 264 222 237 207 215 228 227
263 315 323 323 265 8 240 46 128 116 95 107 334 69 292 321 347 278 299 303 334 269 148 120 140 150 170 174 183 193 198 205 204 205 209 223 230 220 217 187 193 219 240 235
241 243 230 234 290 250 193 84 44 56 75 58 213 128 281 256 266 309 274 292 300 228 130 131 146 155 166 177 186 193 202 204 208 210 216 224 220 190 174 192 217 232 284 245
332 284 288 306 347 308 95 59 12 14 20 187 330 87 213 220 184 222 255 278 301 245 159 157 150 164 167 180 190 198 201 205 209 212 217 226 233 233 223 216 231 206 191 206
260 333 26 319 95 262 89 135 145 184 177 180 356 143 204 216 218 243 250 255 276 301 245 174 175 181 176 187 192 196 204 211 212 217 219 221 225 229 233 229 246 248 244 198
180 264 352 50 8 45 344 44 141 101 61 77 274 354 327 278 252 263 270 294 273 256 236 179 187 191 183 188 195 196 208 213 210 218 226 227 236 232 231 234 231 234 244 234
251 317 315 317 56 3 106 165 35 19 104 141 308 292 222 255 264 258 263 256 265 236 209 192 196 195 192 192 199 202 207 211 209 216 230 231 238 239 229 234 228 240 240 245
169 118 295 16 305 201 330 55 53 109 135 145 168 255 226 236 224 249 233 231 268 229 196 199 204 200 202 202 199 204 209 212 210 215 227 229 238 236 239 241 238 249 251 257
15 131 51 265 314 230 149 181 137 117 237 199 149 258 233 245 254 240 269 275 286 224 204 208 209 203 207 211 206 204 208 213 209 215 219 230 215 223 232 244 247 253 254 253
184 15 26 342 353 6 12 237 181 115 84 189 120 256 236 287 287 286 278 282 305 246 235 252 265 233 217 218 217 207 209 212 213 211 212 219 220 242 248 232 243 229 237 241
83 107 141 184 234 213 354 31 75 135 91 244 21 24 339 284 270 296 287 260 263 355 318 298 274 258 242 226 212 210 203 205 209 198 213 208 215 227 225 222 224 237 234 232
88 110 129 220 40 43 26 92 77 62 270 110 267 355 293 264 248 234 59 81 107 317 11 354 326 286 242 249 223 213 199 202 207 198 213 214 211 214 213 220 219 227 221 210
359 355 47 353 64 17 104 64 89 122 175 114 130 171 272 344 86 40 41 46 17 350 337 310 318 342 294 281 47 48 27 3 36 14 256 225 212 218 223 233 238 216 192 177
54 64 66 277 8 37 338 17 18 331 35 125 151 189 53 40 65 45 32 43 21 348 334 343 7 54 82 91 104 112 172 115 59 101 14 299 229 231 231 207 197 184 177 176
81 72 104 236 27 261 235 207 188 124 103 74 79 82 54 118 199 49 29 82 342 316 347 20 154 109 71 97 104 113 106 106 96 92 43 27 26 332 182 176 178 181 188 201
146 134 58 116 163 289 279 202 245 151 196 93 129 69 39 20 45 343 356 343 294 337 213 179 168 113 95 96 104 91 73 88 105 124 136 240 306 314 180 174 182 201 209 217
82 86 136 133 157 210 241 140 151 87 330 114 131 88 39 56 41 273 296 307 330 31 159 175 141 99 119 108 106 95 102 109 108 131 255 258 285 188 70 204 215 234 254 264
159 202 171 145 173 270 253 123 103 99 232 193 156 151 72 76 197 251 310 6 19 50 83 87 96 96 122 123 135 129 129 132 191 235 278 279 189 316 256 234 233 282 271 272
173 138 193 94 110 251 190 126 170 197 170 167 174 170 161 190 342 351 21 31 41 75 108 114 109 110 140 141 145 144 173 218 224 309 261 216 240 232 228 233 253 276 281 285
142 178 174 149 214 287 302 241 21 137 152 180 150 176 137 96 50 66 63 55 89 118 130 124 128 139 163 164 188 187 213 201 225 217 246 295 277 261 284 296 291 277 278 277
301 57 102 91 338 347 226 274 301 174 168 126 146 161 123 114 111 101 95 33 51 90 131 153 142 146 162 184 203 216 174 232 257 272 300 307 292 291 290 291 274 266 269 273
221 9 110 310 275 343 44 177 199 184 128 136 177 135 136 116 97 121 142 20 53 84 101 147 175 188 195 205 221 215 225 240 267 294 313 309 305 304 307 309 301 294 287 280
197 173 146 219 214 158 209 219 215 163 170 176 133 118 127 128 144 145 113 105 99 97 107 152 184 198 222 236 248 227 267 296 301 306 316 320 318 313 314 309 304 302 299 300